Location: Spruce Knob
(38.6995°N, 79.5330°W)
Time: 17:15:34
(UTC-05:00)

AO-109 - Visible Passes

Search period start: 28 November 2023 00:00
Search period end: 08 December 2023 00:00
Orbit: 392 x 422 km, 60.7° (Epoch: 28 November)

Date Brightness Start Highest point End Pass type
(mag) Time Alt. Az. Time Alt. Az. Time Alt. Az.
28 Nov ? 06:13:49 10° S 06:16:19 22° ESE 06:18:49 10° ENE visible
30 Nov ? 06:07:26 10° SSW 06:10:32 60° SE 06:13:41 10° NE visible
01 Dec ? 05:17:17 10° S 05:19:50 23° ESE 05:22:24 10° ENE visible
02 Dec ? 06:02:44 23° WSW 06:04:21 46° NW 06:07:26 10° NNE visible
03 Dec ? 05:14:48 26° NE 05:14:48 26° NE 05:16:24 10° NE visible
04 Dec ? 05:59:00 17° NNW 05:59:00 17° NNW 06:00:13 10° N visible
